Torna al catalogo

DELTA 1 DEB

AttivoSSO
NORAD 18775·DEBRIS·🇺🇸 United States

Lanciato Mar 5, 1978 da Vandenberg Space Force Base

Loading…

Prossimi Passaggi (prossime 24 ore)

TLE

AggiornatoSource: Space-Track

Epoca: Sep 13, 2026, 16:04 UTC

1 18775U 78026HH  26256.66968040  .00000621  00000-0  44754-3 0  9997
2 18775  99.1293 160.9013 0064997 107.0844 253.7453 13.99581789928842

Traccia DELTA 1 DEB in tempo reale con AllMySat

Download on the App Store